Regional Weather Roundup
Issued by NWS

Home | Current Version | Previous Version | Graphics & Text | Print | Product List | Glossary Off
Versions: 1 2 3 4 5 6 7 8 9 10 11 12 13 14 15 16 17 18 19 20 21 22 23 24 25 26 27 28 29 30 31 32 33 34 35 36 37 38 39 40 41 42 43 44 45 46 47 48 49 50

000
ASUS43 KTOP 251408
RWRKS

WEATHER ROUNDUP FOR KANSAS
NATIONAL WEATHER SERVICE GOODLAND KS
900 AM CDT SAT OCT 25 2014

NOTE:  "FAIR" INDICATES FEW OR NO CLOUDS BELOW 12,000 FEET WITH NO
SIGNIFICANT WEATHER AND/OR OBSTRUCTIONS TO VISIBILITY.

KSZ001>006-013>018-027>032-041>047-251500-
NORTHWEST KANSAS

CITY           SKY/WX    TMP DP  RH WIND       PRES   REMARKS
GOODLAND       CLEAR     49  34  56 W6        30.15R
HAYS           SUNNY     50  43  76 CALM      30.08R
HILL CITY      SUNNY     48  42  80 W3        30.09R
RUSSELL        SUNNY     52  50  93 SW7       30.06R
$$

KSZ061>065-074>080-084>089-251500-
SOUTHWEST KANSAS

CITY           SKY/WX    TMP DP  RH WIND       PRES   REMARKS
DODGE CITY     SUNNY     60  45  57 CALM      30.09R
ELKHART          N/A     55  37  50 W8          N/A
GARDEN CITY    SUNNY     53  45  74 NW6       30.09R
GREAT BEND     SUNNY     50  46  87 CALM      30.09R
LIBERAL        SUNNY     50  39  66 SW5       30.13R
PRATT          SUNNY     55  54  94 NE5       30.09R
$$

KSZ066>073-081>083-090>101-251500-
SOUTHEAST KANSAS

CITY           SKY/WX    TMP DP  RH WIND       PRES   REMARKS
CHANUTE        FOG       58  58 100 SE3       30.08R VSB 1/4
COFFEYVILLE    SUNNY     59  59 100 S6        30.08R FOG
HUTCHINSON     FOG       54  53  97 CALM      30.07R VSB 1/4
MEDICINE LODGE   N/A     54  53  97 E5        30.06R
NEWTON           N/A     57  52  82 SE6       30.09R VSB 3/4
PARSONS        SUNNY     62  62 100 S3        30.09R FOG
WICHITA INTL   FOG       56  55  97 CALM      30.06R VSB 1
WICHITA JABRA  FOG       54  54 100 E3        30.07R VSB 1/4
WINFIELD       SUNNY     61  59  93 CALM      30.08R
$$

KSZ007>012-019>026-033>040-048>060-102>105-251500-
NORTHEAST KANSAS

CITY           SKY/WX    TMP DP  RH WIND       PRES   REMARKS
CONCORDIA      SUNNY     54  53  97 E5        30.08R FOG
EMPORIA        FOG       56  56 100 SE5       30.07R VSB 1/2
LAWRENCE       FOG       52  52 100 CALM      30.07R VSB<1/4
MANHATTAN      FOG       55  55 100 CALM      30.08R VSB<1/4
MARYSVILLE     SUNNY     50  50 100 N3        30.08R FOG
OLATHE IND     FOG       52  51  97 CALM      30.07R VSB 1/4
OLATHE EXE     SUNNY     58  58 100 CALM      30.06R FOG
SALINA         MOSUNNY   56  54  93 CALM      30.07R FOG
TOPEKA BILLARD FOG       54  54 100 CALM      30.07R VSB 1/4
TOPEKA FORBES  PTSUNNY   57  57 100 CALM      30.07R FOG
$$



USA.gov is the U.S. government's official web portal to all federal, state and local government web resources and services.